Date,TemperatureHighF,TemperatureAvgF,TemperatureLowF,DewpointHighF,DewpointAvgF,DewpointLowF,HumidityHigh,HumidityAvg,HumidityLow,PressureMaxIn,PressureMinIn,WindSpeedMaxMPH,WindSpeedAvgMPH,GustSpeedMaxMPH,PrecipitationSumIn
2013-3-1,30.0,28.0,26.0,27.0,23.3,21.0,88,82,75,0.00,40.00,10,5,21,0.00
2013-3-2,27.0,25.4,22.0,24.0,21.3,19.0,87,84,75,0.00,40.00,11,4,17,0.00
2013-3-3,27.0,24.3,22.0,22.0,19.6,17.0,87,82,72,0.00,40.00,10,5,19,0.00
2013-3-4,34.0,26.4,21.0,21.0,17.6,15.0,86,70,45,0.00,40.00,9,3,16,0.00
2013-3-5,42.0,29.1,16.0,25.0,19.3,14.0,91,69,38,0.00,40.00,9,4,17,0.00
2013-3-6,47.0,37.5,33.0,30.0,26.9,24.0,87,65,48,0.00,40.00,9,3,20,0.00
2013-3-7,39.0,33.8,29.0,32.0,29.7,25.0,91,85,70,0.00,40.00,9,3,16,0.00
2013-3-8,37.0,30.5,24.0,30.0,26.6,22.0,90,85,68,0.00,40.00,7,2,11,0.00
2013-3-9,54.0,36.3,19.0,34.0,25.2,18.0,92,68,36,0.00,40.00,9,2,14,0.00
2013-3-10,67.0,56.3,48.0,38.0,32.7,26.0,55,41,27,0.00,40.00,9,4,16,0.00
2013-3-11,62.0,53.5,43.0,49.0,41.1,33.0,91,66,35,0.00,40.00,13,5,28,0.00
2013-3-12,42.0,37.0,34.0,37.0,29.7,26.0,86,75,66,0.00,40.00,9,5,21,0.00
2013-3-13,34.0,30.3,27.0,28.0,22.7,14.0,89,73,50,0.00,40.00,16,7,32,0.00
2013-3-14,36.0,29.7,25.0,20.0,17.1,14.0,79,59,47,0.00,40.00,16,7,27,0.00
2013-3-15,43.0,33.9,23.0,33.0,27.6,20.0,91,78,61,0.00,40.00,12,3,18,0.00
2013-3-16,36.0,32.3,29.0,34.0,30.0,25.0,92,90,86,0.00,40.00,6,2,11,0.00
2013-3-17,35.0,30.5,26.0,27.0,22.5,18.0,87,72,55,0.00,40.00,7,2,14,0.00
2013-3-18,42.0,33.7,26.0,40.0,28.9,17.0,91,82,67,0.00,40.00,13,6,24,0.00
2013-3-19,42.0,31.7,27.0,40.0,22.2,16.0,91,67,54,0.00,40.00,17,8,29,0.00
2013-3-20,30.0,27.5,22.0,25.0,19.1,14.0,89,70,55,0.00,40.00,13,6,24,0.00
2013-3-21,28.0,23.1,17.0,25.0,18.2,12.0,91,81,65,0.00,40.00,12,5,17,0.00
2013-3-22,35.0,27.0,19.0,24.0,22.1,16.0,92,82,58,0.00,40.00,10,4,17,0.00
2013-3-23,41.0,26.5,10.0,29.0,19.0,8.0,90,74,49,0.00,40.00,7,1,13,0.00
2013-3-24,36.0,28.9,21.0,26.0,21.3,19.0,91,74,53,0.00,40.00,11,3,20,0.00
2013-3-25,37.0,33.9,32.0,35.0,30.5,24.0,91,87,65,0.00,40.00,9,4,18,0.00
2013-3-26,40.0,34.4,31.0,32.0,30.8,29.0,91,87,70,0.00,40.00,12,3,19,0.00
2013-3-27,42.0,36.8,32.0,32.0,28.6,24.0,91,73,48,0.00,40.00,12,6,21,0.00
2013-3-28,42.0,37.5,34.0,32.0,30.1,28.0,89,74,59,0.00,40.00,11,4,20,0.00
2013-3-29,49.0,40.0,30.0,33.0,27.5,21.0,89,64,36,0.00,40.00,14,3,24,0.00
2013-3-30,58.0,40.3,24.0,35.0,24.0,20.0,91,60,24,0.00,40.00,8,1,16,0.00
2013-3-31,54.0,44.3,35.0,46.0,36.4,-99.9,89,77,42,0.00,40.00,8,2,16,0.00